EW1458 Weather Reports


Display with metric or nautical units.
time (UTC)temp
F
wind
direction
speed
MPH
gust
MPH
rain 1hr
in
rain 24hr
in
rain mn
in
humidity
%
barometer
mb
20260503231650 38 270 5.0 25.0 0.20 1.78 1.78 89 991.9
20260503231147 38 307 17.0 29.0 0.19 1.75 1.77 89 991.6
20260503230649 37 305 12.0 29.0 0.20 1.75 1.75 91 991.6
20260503230145 37 301 18.0 28.0 0.19 1.74 1.74 93 991.4
20260503225644 37 286 6.0 25.0 0.19 1.73 1.73 94 991.4
20260503225144 37 219 4.0 25.0 0.18 1.71 1.71 94 991.4
20260503223639 38 310 10.0 16.0 0.18 1.66 1.66 93 991.3
20260503223138 39 344 6.0 16.0 0.18 1.64 1.64 94 991.3
20260503221638 39 38 3.0 14.0 0.16 1.57 1.57 94 991.0
20260503221136 39 44 6.0 18.0 0.16 1.56 1.56 94 991.0
20260503220633 39 54 7.0 21.0 0.16 1.55 1.56 94 991.0
20260503220129 39 25 8.0 21.0 0.16 1.55 1.55 94 991.0
20260503215626 39 55 13.0 21.0 0.16 1.54 1.54 94 990.9
20260503215126 39 34 11.0 23.0 0.16 1.53 1.53 94 990.9
20260503214626 40 42 10.0 23.0 0.13 1.50 1.52 94 991.3
20260503214126 40 37 7.0 22.0 0.13 1.49 1.49 94 991.4
20260503213626 40 39 9.0 22.0 0.12 1.48 1.48 94 991.5
20260503213126 40 83 3.0 20.0 0.10 1.46 1.46 94 991.7
20260503212626 40 319 8.0 14.0 0.09 1.44 1.44 94 991.9
20260503212126 40 248 7.0 15.0 0.09 1.42 1.42 95 991.8
20260503211626 40 42 7.0 15.0 0.09 1.42 1.42 95 991.6
20260503211126 40 352 4.0 15.0 0.09 1.41 1.41 94 991.7
20260503210625 40 30 6.0 17.0 0.07 1.39 1.39 94 991.9
20260503210122 40 77 4.0 17.0 0.09 1.39 1.39 94 991.9
20260503205622 40 136 3.0 19.0 0.08 1.38 1.38 94 992.0
20260503205122 40 349 3.0 19.0 0.07 1.37 1.37 94 991.9
20260503204116 40 19 4.0 17.0 0.08 1.36 1.36 94 992.0
20260503203616 41 67 5.0 18.0 0.09 1.36 1.36 94 992.0
20260503202615 41 288 4.0 13.0 0.09 1.35 1.35 94 992.6
20260503202112 41 66 8.0 12.0 0.09 1.33 1.33 94 992.6
20260503201610 41 108 5.0 12.0 0.12 1.33 1.33 94 992.5
20260503201111 41 345 3.0 12.0 0.12 1.32 1.32 94 992.8
20260503195611 41 95 4.0 17.0 0.16 1.31 1.31 94 993.5
20260503195110 41 27 2.0 17.0 0.15 1.30 1.30 93 993.5
20260503194607 41 306 4.0 22.0 0.14 1.29 1.29 93 993.3
20260503194108 41 28 8.0 22.0 0.16 1.29 1.29 93 993.3
20260503193608 42 57 6.0 19.0 0.16 1.28 1.28 93 993.2
20260503193108 42 25 4.0 16.0 0.16 1.26 1.26 93 993.6
20260503192604 42 48 9.0 19.0 0.16 1.25 1.25 94 993.7
20260503192116 42 80 6.0 19.0 0.14 1.24 1.24 94 993.5
20260503191602 42 71 2.0 15.0 0.13 1.21 1.21 94 993.9
20260503191059 42 42 6.0 15.0 0.13 1.20 1.20 94 994.2
20260503190059 42 50 7.0 14.0 0.11 1.17 1.17 95 994.6
20260503185557 42 40 5.0 14.0 0.09 1.15 1.15 95 994.9
20260503184557 42 51 7.0 16.0 0.10 1.14 1.14 95 994.6
20260503183552 41 44 8.0 13.0 0.11 1.12 1.12 96 995.0
20260503183054 41 61 5.0 13.0 0.11 1.11 1.11 96 995.4
20260503182603 41 78 2.0 11.0 0.11 1.10 1.10 96 996.0
20260503182051 41 41 4.0 10.0 0.11 1.10 1.10 96 995.8
20260503181551 41 71 4.0 9.0 0.12 1.08 1.08 96 996.0
20260503181051 41 37 2.0 11.0 0.12 1.07 1.07 95 996.3
20260503180551 41 74 4.0 13.0 0.13 1.06 1.07 95 996.2
20260503175538 40 53 6.0 13.0 0.16 1.06 1.06 95 996.8
20260503174537 40 69 9.0 11.0 0.21 1.04 1.04 95 997.0
20260503174034 40 28 4.0 11.0 0.23 1.02 1.02 94 997.1
20260503173033 40 38 4.0 9.0 0.27 1.00 1.00 94 997.6
20260503172532 40 20 2.0 13.0 0.29 0.99 1.00 94 997.9
20260503171534 40 21 6.0 13.0 0.33 0.96 0.96 93 997.7
20260503171032 40 55 5.0 13.0 0.35 0.94 0.95 93 998.3
20260503170533 40 44 5.0 15.0 0.38 0.93 0.94 93 998.0
20260503150957 42 354 4.0 12.0 0.13 0.18 0.18 89 1002.5
20260503150458 43 58 8.0 15.0 0.13 0.17 0.17 89 1002.8
20260503130928 47 92 2.0 8.0 0.00 0.01 0.01 78 1006.5
20260503130427 47 237 0.0 7.0 0.00 0.01 0.01 80 1006.5
20260503110347 46 49 2.0 5.0 0.01 0.01 0.01 86 1007.2
20260503090326 48 101 4.0 10.0 0.00 0.00 0.00 67 1009.0
20260503081312 47 113 4.0 7.0 0.00 0.00 0.00 67 1009.5
20260503080811 47 66 3.0 4.0 0.00 0.00 0.00 68 1009.5
20260503080308 47 57 2.0 3.0 0.00 0.00 0.00 66 1009.7
20260503072808 46 33 0.0 6.0 0.00 0.00 0.00 67 1010.2
20260503072308 46 58 5.0 5.0 0.00 0.00 0.00 67 1010.1
20260503071807 46 57 2.0 5.0 0.00 0.00 0.00 67 1010.3
20260503071306 46 100 0.0 8.0 0.00 0.00 0.00 66 1010.2
20260503070804 47 30 5.0 8.0 0.00 0.00 0.00 65 1010.3
20260503070306 47 39 5.0 7.0 0.00 0.00 0.00 65 1010.2
20260503060247 47 43 2.0 4.0 0.00 0.00 0.00 64 1011.0
20260503054746 46 32 2.0 4.0 0.00 0.00 0.00 67 1011.2
20260503053744 45 335 1.0 3.0 0.00 0.00 0.00 72 1011.2
20260503052739 45 31 2.0 2.0 0.00 0.00 0.00 73 1011.3
20260503052233 45 281 0.0 3.0 0.00 0.00 0.00 72 1011.5
20260503051232 45 48 2.0 3.0 0.00 0.00 0.00 73 1011.4
20260503050732 45 64 1.0 4.0 0.00 0.00 0.00 71 1011.5
20260503050232 44 64 2.0 4.0 0.00 0.00 0.00 73 1011.6
20260503045233 45 25 2.0 4.0 0.00 0.00 0.00 71 1011.8
20260503044732 45 46 3.0 5.0 0.00 0.00 0.00 70 1012.1
20260503044233 45 45 3.0 5.0 0.00 0.00 0.00 70 1012.1
20260503043732 44 48 2.0 4.0 0.00 0.00 0.00 72 1012.1
20260503043232 44 40 3.0 4.0 0.00 0.00 0.00 72 1012.4
20260503042743 44 63 4.0 4.0 0.00 0.00 0.00 72 1012.2
20260503042229 44 57 2.0 4.0 0.00 0.00 0.00 74 1012.4
20260503041728 45 63 1.0 2.0 0.00 0.00 0.00 76 1012.5
20260503041226 45 104 0.0 3.0 0.00 0.00 0.00 75 1012.7
20260503040725 45 103 2.0 4.0 0.00 0.00 0.00 73 1012.7
20260503040225 45 117 0.0 4.0 0.00 0.00 0.00 74 1013.0
20260503035725 45 128 2.0 4.0 0.00 0.00 0.00 75 1013.0
20260503035225 46 296 2.0 4.0 0.00 0.00 0.00 75 1012.8
20260503034725 46 41 2.0 4.0 0.00 0.00 0.00 72 1012.9
20260503034239 46 305 2.0 4.0 0.00 0.00 0.00 71 1013.0
20260503033730 46 66 2.0 4.0 0.00 0.00 0.00 74 1013.1
20260503033225 46 199 3.0 5.0 0.00 0.00 0.00 70 1013.1
20260503032725 46 77 2.0 5.0 0.00 0.00 0.00 70 1013.3
20260503032226 46 115 1.0 4.0 0.00 0.00 0.00 72 1013.2
20260503031738 46 41 3.0 4.0 0.00 0.00 0.00 72 1013.3
20260503031225 46 55 3.0 3.0 0.00 0.00 0.00 73 1013.2
20260503030726 46 34 1.0 2.0 0.00 0.00 0.00 77 1013.4
20260503030225 46 20 1.0 2.0 0.00 0.00 0.00 77 1013.3
20260503025239 46 311 0.0 2.0 0.00 0.00 0.00 76 1013.6
20260503024225 46 92 1.0 2.0 0.00 0.00 0.00 75 1013.5
20260503022726 46 312 1.0 3.0 0.00 0.00 0.00 77 1013.5
20260503022227 46 155 0.0 3.0 0.00 0.00 0.00 77 1013.5
20260503021726 46 318 2.0 2.0 0.00 0.00 0.00 75 1013.6
20260503021223 46 327 0.0 1.0 0.00 0.00 0.00 74 1013.6
20260503020225 47 3 1.0 2.0 0.00 0.00 0.00 73 1013.8
20260503015724 47 43 2.0 2.0 0.00 0.00 0.00 73 1013.8
20260503015222 47 68 0.0 2.0 0.00 0.00 0.00 73 1013.8
20260503014720 47 64 0.0 2.0 0.00 0.00 0.00 72 1013.9
20260503014220 47 39 0.0 2.0 0.00 0.00 0.00 69 1013.7
20260503013721 47 53 0.0 2.0 0.00 0.00 0.00 67 1013.7
20260503013213 48 28 0.0 2.0 0.00 0.00 0.00 66 1013.8
20260503012707 48 30 0.0 2.0 0.00 0.00 0.00 65 1013.8
20260503011708 48 297 0.0 2.0 0.00 0.00 0.00 65 1013.8
20260503011209 48 61 2.0 2.0 0.00 0.00 0.00 65 1013.7
20260503010706 49 12 0.0 2.0 0.00 0.00 0.00 62 1013.7
20260503010206 49 35 1.0 2.0 0.00 0.00 0.00 62 1013.6
20260503005704 49 314 2.0 2.0 0.00 0.00 0.00 59 1013.7
20260503003703 49 5 0.0 2.0 0.00 0.00 0.00 58 1013.7
20260503003150 50 41 0.0 2.0 0.00 0.00 0.00 57 1013.6
20260503002648 50 290 0.0 2.0 0.00 0.00 0.00 58 1013.7
20260503001640 50 228 1.0 4.0 0.00 0.00 0.00 58 1013.5
20260503001137 50 341 0.0 4.0 0.00 0.00 0.00 58 1013.4
20260503000145 50 149 0.0 4.0 0.00 0.00 0.00 58 1013.5
20260502235632 51 193 1.0 6.0 0.00 0.00 0.00 56 1013.3
20260502235132 51 275 2.0 6.0 0.00 0.00 0.00 53 1013.3
20260502234634 51 263 4.0 6.0 0.00 0.00 0.00 53 1013.3
20260502234120 51 225 3.0 6.0 0.00 0.00 0.00 53 1013.3
20260502233620 51 248 3.0 10.0 0.00 0.00 0.00 53 1013.2
20260502232617 52 232 2.0 7.0 0.00 0.00 0.00 53 1013.1